THOR ABLESTAR DEB, 461

Orbit data source: Space-Track

THOR ABLESTAR DEB, 461 is space debris in LEO originally from a launch on Thu, 29 Jun 1961 UTC launched from the Air Force Eastern Test Range (AFETR). Debris objects in space refer to the collection of defunct objects orbiting the Earth. Examples of debris include non-operational satellites, rocket bodies, and fragments generated from explosions, collisions, or faulty payload assembly.

Loading next visibility...
Identifier
461, 1961-015EX
Orbit
LEO
Country
Flag of USUS
Related business
Manufacturer
Unknown
Mission
Spacecraft
Bus & Motor
Unknown
Mass
Unknown
Launch date (UTC)
1961-06-29 (65 years ago)
Launch vehicle
Unknown
Launch site
Air Force Eastern Test Range (AFETR)
Object type
Payload
Rocket body
Debris
Shape & HBR
Unknown shape, 0.1 m
Radar Cross Section
Medium (>0.1 m² and <1 m²)

Expand to show TLE details & history
Last TLE update: 2 days ago

TLE from 2 days ago
0 THOR ABLESTAR DEB
1 00461U 61015EX  26171.19570425  .00022497  00000-0  14183-2 0  9997
2 00461  67.4923  80.4199 0025586 287.9466  71.8890 15.08846318386265
Epoch: 2026-06-20T04:41Z
TLE epoch observation values (Epoch: 2026-06-20T04:41:48.847Z)
Latitude
0.00002°
Longitude
101.55257°
Altitude
536.509 km
Speed
7.598 km/s
True Right ascension
05h 21m 40s
True Declination
0° 00' 00"
Sunlit
Object was in daylight at epoch
Visualization orbit readout
Latitude
Unknown
Longitude
Unknown
Altitude
Unknown
Speed
Unknown
Apparent Right ascension
Unknown
Apparent Declination
Unknown
Sunlit
N/A
Visualization observer readout
Local Sidereal Time
03:58:47
Azimuth
Unknown
Elevation
Unknown
Doppler factor
Unknown
Orbital elements
Apogee altitude
555.64 km
Perigee altitude
520.249 km
Semi-major axis
6,916.082 km
Eccentricity
0.00256
Inclination
67.4923°
RAAN
80.4199°
Arg. of periapsis
287.9466°
True anomaly
72.16794°
Mean anomaly
71.889°
Eccentric anomaly
72.02844°
Mean motion
3.77357 °/min
Orbital period
95.4 mins
BSTAR
0.0014183
Loading maneuver chart data...
Computing Atmospheric mass density...

Documentation

Showing up to 5 results
|